Regional Weather Roundup
Issued by NWS Cleveland, OH

Home | Current Version | Previous Version | Text Only | Print | Product List | Glossary On
Versions: 1 2 3 4 5 6 7 8 9 10 11 12 13 14 15 16 17 18 19 20 21 22 23 24 25 26 27 28 29 30 31 32 33 34 35 36 37 38 39 40 41 42 43 44 45 46 47 48 49 50
000
ASUS41 KCLE 011610
RWRCLE
OHIO REGIONAL WEATHER ROUNDUP
NATIONAL WEATHER SERVICE WILMINGTON, OH
1200 PM EDT TUE SEP 01 2015

NOTE: "FAIR" INDICATES FEW OR NO CLOUDS BELOW 12,000 FEET WITH NO
SIGNIFICANT WEATHER AND/OR OBSTRUCTIONS TO VISIBILITY.

OHZ001>008-015>018-024>027-034-035-043-044-011700-
   NORTHWEST OHIO

CITY           SKY/WX    TMP DP  RH WIND       PRES   REMARKS
DEFIANCE       PTSUNNY   82  70  66 W5        30.12S
FINDLAY        SUNNY     83  70  64 W7        30.12S
TOLEDO EXPRESS SUNNY     83  70  64 W7        30.10F
TOLEDO EXEC    SUNNY     82  70  66 SW5       30.11F
LIMA           SUNNY     80  69  69 SW7       30.14S
$$

OHZ009>014-019>023-028>033-038-089-011700-
   NORTHEAST OHIO

CITY           SKY/WX    TMP DP  RH WIND       PRES   REMARKS
CLE-HOPKINS    MOSUNNY   84  69  60 S6        30.14F
CLE-LAKEFRONT  SUNNY     79  70  74 NW5       30.11S
CUY CO. ARPT   MOSUNNY   84  68  58 NW5       30.13F
LORAIN-ELYRIA  SUNNY     84  69  60 VRB3      30.12F
ASHTABULA      MOSUNNY   81  69  67 VRB7      30.13F
AKRON-CANTON   MOSUNNY   85  66  53 CALM      30.14F
WOOSTER        SUNNY     84  67  56 W3        30.14F
MANSFIELD      SUNNY     84  66  54 VRB3      30.15F
YOUNGSTOWN     MOSUNNY   83  67  58 W5        30.14F
$$

OHZ042-051>053-060>062-070>072-077>081-011700-
  SOUTHWEST OHIO

CITY           SKY/WX    TMP DP  RH WIND       PRES   REMARKS
CINC-COVINGTON MOSUNNY   84  67  56 W5        30.16S
CINC-LUNKEN    SUNNY     83  69  62 SE3       30.15F
HAMILTON       SUNNY     84  68  58 CALM      30.16F
DAYTON         MOSUNNY   80  69  69 SW3       30.16F
WRIGHT-PAT AFB MOSUNNY   83  71  68 S7        30.15S
DAYTON GENERAL MOSUNNY   82  67  60 SW3       30.15F
WILMINGTON     MOSUNNY   83  66  56 SE3       30.16S
$$

OHZ036-037-039>041-045>050-054>059-063>069-073>076-082>088-011700-
  CENTRAL AND SOUTHEAST OHIO

CITY           SKY/WX    TMP DP  RH WIND       PRES   REMARKS
COLUMBUS       MOSUNNY   82  69  64 CALM      30.14F
OSU AIRPORT    MOSUNNY   84  69  60 VRB3      30.14F
BOLTON FIELD   SUNNY     82  72  69 SW3       30.16S
RICKENBACK AFB SUNNY     81  69  65 CALM      30.14F
NEWARK         SUNNY     84  69  60 CALM      30.14F
MARION         MOSUNNY   81  69  67 VRB3      30.15S
LANCASTER      SUNNY     84  67  56 CALM      30.15F
ZANESVILLE     SUNNY     83  65  54 CALM      30.15F
NEW PHILLY     SUNNY     83  69  62 W6        30.14F
$$



USA.gov is the U.S. government's official web portal to all federal, state and local government web resources and services.